カタログに戻る

STARLINK-2285

運用中通信VLEO
NORAD 48019·PAYLOAD·🇺🇸 United States

打ち上げ Mar 24, 2021 から Cape Canaveral Space Force Station

Loading…

次のパス (今後24時間)

TLE

最新Source: CelesTrak SupGP

元期: Sep 15, 2026, 01:55 UTC

1 48019C 21024AU  26258.08034722  .00038855  00000+0  12494-2 0  2588
2 48019  53.1582 145.4905 0001306  80.9617 236.2732 15.31683722    11

AllMySatでSTARLINK-2285をリアルタイム追跡

Download on the App Store